QPF
0.01 0.01 0.02 0.04 0.08 0.07 0.07 0.07 0.05 0.05 0.01 0.03 0.07 0.07 0.09 0.10 0.07 0.05 0.02 0.01 0.00 0.00
0.04 0.05 0.04 0.01 0.01 0.01 0.01 0.02 0.05 0.10 0.08 0.09 0.11 0.11 0.11 0.08 0.03 0.00 0.00 0.00 0.00 0.00
0.10 0.10 0.15 0.09 0.02 0.02 0.04 0.02 0.04 0.08 0.07 0.07 0.06 0.06 0.04 0.01 0.00 0.00 0.00 0.00 0.00 0.00
0.10 0.05 0.07 0.10 0.07 0.04 0.03 0.02 0.01 0.02 0.01 0.00 0.00 0.00 0.00 0.00 0.00 0.00 0.00 0.00 0.00 0.00
0.03 0.04 0.03 0.02 0.02 0.01 0.00 0.00 0.00 0.00 0.00 0.00 0.00 0.00 0.00 0.00 0.00 0.00 0.00 0.00 0.00 0.00
0.02 0.02 0.02 0.00 0.00 0.00 0.00 0.00 0.00 0.00 0.00 0.00 0.00 0.00 0.00 0.00 0.00 0.00 0.00 0.00 0.00 0.00
0.01 0.00 0.00 0.00 0.00 0.00 0.00 0.00 0.00 0.00 0.00 0.00 0.00 0.00 0.00 0.00 0.00 0.00 0.00 0.00 0.00 0.00
0.01 0.01 0.00 0.00 0.00 0.00 0.00 0.00 0.00 0.00 0.00 0.00 0.00 0.00 0.00 0.00 0.00 0.00 0.00 0.00 0.00 0.00
0.00 0.00 0.00 0.00 0.00 0.00 0.00 0.00 0.00 0.00 0.00 0.00 0.00 0.00 0.00 0.00 0.00 0.00 0.00 0.00 0.00 0.00
0.00 0.00 0.00 0.00 0.00 0.00 0.00 0.00 0.00 0.00 0.00 0.00 0.00 0.00 0.00 0.00 0.00 0.00 0.00 0.00 0.00 0.00
0.00 0.00 0.00 0.00 0.00 0.00 0.00 0.00 0.00 0.00 0.00 0.00 0.00 0.00 0.00 0.00 0.00 0.00 0.00 0.00 0.00 0.00
0.00 0.00 0.00 0.00 0.00 0.00 0.00 0.00 0.00 0.00 0.00 0.00 0.00 0.00 0.00 0.00 0.00 0.00 0.00 0.00 0.00 0.00
0.00 0.00 0.00 0.00 0.00 0.00 0.00 0.00 0.00 0.00 0.00 0.00 0.00 0.00 0.00 0.00 0.00 0.00 0.00 0.00 0.00 0.00
0.00 0.00 0.00 0.00 0.00 0.00 0.00 0.00 0.00 0.00 0.00 0.00 0.00 0.00 0.00 0.00 0.00 0.00 0.00 0.00 0.00 0.00
MSLP
1013.10 1014.49 1014.60 1014.60 1015.06 1015.90 1016.71 1017.37 1017.53 1018.03 1018.57 1018.85 1018.82 1019.18 1019.70 1020.28 1020.99 1021.14 1021.42 1021.90 1022.11 1022.48
1013.70 1014.16 1014.18 1014.50 1014.28 1015.72 1015.73 1016.66 1017.15 1017.37 1017.76 1017.97 1018.43 1019.31 1019.91 1020.20 1020.42 1021.08 1021.49 1021.81 1022.15 1022.34
1013.64 1014.10 1014.49 1014.94 1015.50 1015.79 1016.19 1016.87 1017.04 1017.47 1017.85 1018.53 1018.98 1019.06 1019.68 1020.49 1020.99 1021.19 1021.52 1021.77 1022.22 1022.52
1013.69 1014.18 1014.48 1014.87 1015.39 1015.97 1016.58 1016.78 1017.31 1017.47 1017.95 1018.48 1019.44 1019.50 1020.06 1020.56 1021.02 1021.28 1021.73 1022.08 1022.35 1022.83
1013.96 1014.48 1014.74 1015.12 1015.45 1016.04 1016.77 1017.39 1017.89 1017.80 1017.93 1018.64 1019.43 1019.74 1020.17 1020.61 1021.13 1021.50 1021.89 1022.31 1022.66 1022.92
1014.39 1014.99 1015.43 1015.93 1016.29 1016.63 1017.25 1018.15 1018.34 1018.26 1018.19 1018.70 1019.40 1019.76 1020.22 1020.64 1021.38 1021.73 1022.08 1022.46 1022.79 1023.08
1015.03 1015.69 1015.96 1016.36 1016.81 1017.23 1017.96 1018.34 1018.54 1018.75 1018.98 1019.26 1019.66 1020.09 1020.53 1020.99 1021.78 1022.25 1022.59 1022.75 1023.08 1023.44
1015.94 1016.23 1016.54 1017.03 1017.34 1017.71 1018.29 1018.61 1018.91 1019.26 1019.58 1019.73 1020.16 1020.56 1020.92 1021.30 1021.94 1022.34 1022.79 1023.18 1023.29 1023.53
1016.25 1016.26 1016.73 1017.23 1017.53 1017.94 1018.68 1019.13 1019.41 1019.89 1019.98 1020.25 1020.81 1021.16 1021.40 1021.68 1022.26 1022.82 1023.27 1023.57 1023.75 1023.69
1016.49 1016.79 1017.22 1017.74 1017.94 1018.50 1019.12 1019.51 1019.97 1020.17 1020.45 1020.80 1021.15 1021.55 1022.00 1022.46 1022.90 1023.17 1023.46 1023.83 1023.73 1023.85
1017.00 1017.36 1017.81 1018.30 1018.61 1019.32 1019.72 1020.09 1020.40 1020.55 1020.81 1020.92 1021.33 1021.66 1022.13 1022.68 1023.07 1023.55 1023.68 1023.57 1023.44 1023.52
1017.56 1017.92 1018.49 1018.97 1019.31 1019.68 1020.03 1020.48 1020.75 1020.97 1021.03 1021.34 1021.58 1021.99 1022.43 1022.83 1023.33 1023.28 1023.40 1023.55 1023.32 1023.10
1017.86 1018.19 1018.78 1019.16 1019.59 1019.83 1019.90 1020.29 1020.75 1021.20 1021.33 1021.49 1021.70 1021.87 1022.27 1022.72 1022.92 1023.14 1023.37 1022.85 1023.11 1022.93
1017.69 1018.06 1018.71 1019.22 1019.54 1019.94 1019.96 1020.49 1021.12 1021.23 1021.67 1021.89 1021.82 1022.32 1022.50 1022.77 1022.79 1022.40 1022.19 1022.49 1022.68 1022.91
Thickness
5631 5625 5630 5635 5634 5633 5632 5629 5632 5632 5630 5632 5637 5639 5636 5633 5629 5629 5628 5626 5624 5621
5625 5626 5628 5630 5631 5629 5633 5629 5629 5632 5631 5634 5635 5630 5626 5626 5627 5625 5623 5621 5618 5615
5622 5622 5619 5622 5622 5624 5625 5622 5624 5625 5626 5623 5621 5623 5620 5618 5616 5617 5616 5614 5609 5605
5618 5620 5620 5618 5618 5618 5616 5619 5616 5618 5616 5617 5612 5615 5614 5612 5611 5610 5606 5602 5599 5593
5612 5610 5614 5614 5612 5612 5607 5606 5606 5609 5612 5608 5606 5607 5606 5603 5600 5597 5593 5589 5585 5582
5600 5599 5600 5600 5602 5604 5601 5593 5596 5601 5604 5601 5598 5598 5596 5593 5587 5584 5582 5578 5576 5573
5591 5588 5590 5591 5590 5589 5586 5586 5587 5589 5591 5591 5589 5587 5585 5581 5576 5572 5568 5566 5563 5558
5579 5578 5578 5578 5579 5579 5578 5580 5580 5579 5578 5578 5576 5573 5572 5571 5565 5561 5557 5553 5552 5549
5570 5573 5573 5573 5574 5574 5570 5568 5568 5565 5566 5565 5561 5559 5558 5556 5552 5547 5543 5541 5539 5538
5561 5562 5562 5560 5561 5559 5556 5556 5554 5554 5553 5551 5549 5546 5542 5539 5536 5535 5532 5529 5528 5527
5550 5551 5551 5549 5548 5543 5542 5540 5539 5539 5538 5538 5535 5532 5531 5528 5525 5521 5519 5521 5521 5521
5538 5537 5534 5532 5531 5530 5530 5528 5526 5525 5526 5524 5523 5520 5518 5516 5512 5513 5513 5510 5511 5512
5525 5526 5523 5521 5519 5518 5520 5518 5517 5513 5512 5512 5511 5509 5507 5506 5504 5503 5502 5505 5502 5502
5514 5514 5511 5509 5508 5506 5508 5506 5503 5502 5500 5500 5500 5496 5494 5493 5493 5498 5501 5497 5494 5491